Le nostre stazioni meteo in Italia

Pubblicità
Il mio iltempo24.it
Achnagart, Gran Bretagna (99191): Temperatura & dewpoint: 16.06.2017 21:00:00 - 22.06.2017 21:00:00 (BST)Achnagart, Gran Bretagna (99191): Temperatura 5cm: 16.06.2017 21:00:00 - 22.06.2017 21:00:00 (BST)Achnagart, Gran Bretagna (99191): visibility: 16.06.2017 21:00:00 - 22.06.2017 21:00:00 (BST)Achnagart, Gran Bretagna (99191): precipitazioni: 16.06.2017 21:00:00 - 22.06.2017 21:00:00 (BST)
Data & Tempo tt [°C] td [°C] tt 5cm [°C] vv [km] rr [mm]
22.06.2017 21:00:00 12,3 10,9 - - 2,0
22.06.2017 20:00:00 12,6 10,7 - - 1,2
22.06.2017 19:00:00 13,5 10,2 - - 0,0
22.06.2017 18:00:00 14,2 10,0 - - 0,0
22.06.2017 17:00:00 14,5 10,9 - - 0,2
22.06.2017 16:00:00 14,9 11,8 - - 0,0
22.06.2017 15:00:00 15,9 10,8 - - 0,0
22.06.2017 14:00:00 15,5 10,6 - - 0,0
22.06.2017 13:00:00 16,0 10,1 - - 0,0
22.06.2017 12:00:00 14,5 10,2 - - 0,0
22.06.2017 11:00:00 14,9 9,7 - - 0,0
22.06.2017 10:00:00 12,6 10,1 - - 0,0
22.06.2017 09:00:00 12,7 10,5 - - 0,0
22.06.2017 08:00:00 12,5 10,3 - - 0,0
22.06.2017 07:00:00 12,1 11,4 - - 0,0
22.06.2017 06:00:00 11,8 10,9 - - 0,0
22.06.2017 05:00:00 11,9 11,5 - - 0,4
22.06.2017 04:00:00 12,7 12,0 - - 0,0
22.06.2017 03:00:00 13,6 12,8 - - 0,0
22.06.2017 02:00:00 14,2 12,7 - - 0,0
22.06.2017 01:00:00 14,2 12,9 - - 0,0
22.06.2017 00:00:00 14,3 13,0 - - 0,0
21.06.2017 23:00:00 14,5 13,1 - - 0,0
21.06.2017 22:00:00 15,4 13,6 - - 0,0
21.06.2017 21:00:00 15,5 14,0 - - 0,0
21.06.2017 20:00:00 15,8 14,2 - - 0,0
21.06.2017 19:00:00 16,7 14,9 - - 0,6
21.06.2017 18:00:00 17,3 16,5 - - 1,4
21.06.2017 17:00:00 17,6 16,5 - - 4,0
21.06.2017 16:00:00 19,1 15,7 - - 1,4
21.06.2017 15:00:00 22,6 15,1 - - 0,0
21.06.2017 14:00:00 22,8 15,0 - - 0,0
21.06.2017 13:00:00 22,9 15,7 - - 0,0
21.06.2017 12:00:00 21,5 14,9 - - 0,0
21.06.2017 11:00:00 21,5 14,9 - - 0,0
21.06.2017 10:00:00 18,8 13,5 19,3 - 0,0
21.06.2017 09:00:00 17,4 12,2 - - 0,0
21.06.2017 08:00:00 16,1 11,4 - - 0,0
21.06.2017 07:00:00 15,5 10,6 - - 0,0
21.06.2017 06:00:00 14,2 10,2 - - 0,0
21.06.2017 05:00:00 14,7 9,7 - - 0,0
21.06.2017 04:00:00 14,9 9,5 - - 0,0
21.06.2017 03:00:00 15,0 9,5 - - 0,0
21.06.2017 02:00:00 15,4 9,4 - - 0,0
21.06.2017 01:00:00 15,5 9,1 - - 0,0
21.06.2017 00:00:00 15,6 9,2 - - 0,0
20.06.2017 23:00:00 10,8 9,8 - - 0,0
20.06.2017 22:00:00 11,7 9,7 - - 0,0
20.06.2017 21:00:00 13,3 9,7 - - 0,0
20.06.2017 20:00:00 15,3 9,3 - - 0,0
20.06.2017 19:00:00 17,4 9,9 - - 0,0
20.06.2017 18:00:00 18,2 9,8 - - 0,0
20.06.2017 17:00:00 19,0 11,0 - - 0,0
20.06.2017 16:00:00 19,1 11,2 - - 0,0
20.06.2017 15:00:00 18,9 10,8 - - 0,0
20.06.2017 14:00:00 17,3 9,3 - - 0,0
20.06.2017 13:00:00 16,8 8,3 - - 0,0
20.06.2017 12:00:00 16,0 9,3 - - 0,0
20.06.2017 11:00:00 14,1 7,5 - - 0,0
20.06.2017 10:00:00 13,1 6,4 13,4 - 0,0
20.06.2017 09:00:00 11,7 8,5 - - 0,0
20.06.2017 08:00:00 9,9 8,4 - - 0,0
20.06.2017 07:00:00 8,6 8,5 - - 0,0
20.06.2017 06:00:00 7,3 7,3 - - 0,0
20.06.2017 05:00:00 5,9 5,9 - - 0,0
20.06.2017 04:00:00 5,3 5,0 - - 0,0
20.06.2017 03:00:00 7,0 6,7 - - 0,0
20.06.2017 02:00:00 7,5 6,4 - - 0,0
20.06.2017 01:00:00 8,6 7,7 - - 0,0
20.06.2017 00:00:00 8,9 7,5 - - 0,0
19.06.2017 23:00:00 8,9 6,3 - - 0,0
19.06.2017 22:00:00 11,4 6,4 - - 0,0
19.06.2017 21:00:00 12,8 7,3 - - 0,0
19.06.2017 20:00:00 13,4 7,7 - - 0,0
19.06.2017 19:00:00 14,4 9,3 - - 0,0
19.06.2017 18:00:00 13,9 9,7 - - 0,0
19.06.2017 17:00:00 15,8 10,4 - - 0,0
19.06.2017 16:00:00 14,8 10,9 - - 0,0
19.06.2017 15:00:00 15,9 10,7 - - 0,0
19.06.2017 14:00:00 14,2 10,7 - - 0,0
19.06.2017 13:00:00 14,3 11,0 - - 0,0
19.06.2017 12:00:00 13,9 11,0 - - 0,0
19.06.2017 11:00:00 12,6 11,7 - - 0,4
19.06.2017 10:00:00 11,0 10,5 12,3 - 1,0
19.06.2017 09:00:00 11,7 11,5 - - 0,2
19.06.2017 08:00:00 11,5 11,5 - - 0,8
19.06.2017 07:00:00 11,4 11,4 - - 0,2
19.06.2017 06:00:00 11,5 11,5 - - 0,4
19.06.2017 05:00:00 11,5 11,4 - - 0,4
19.06.2017 04:00:00 11,5 11,3 - - 0,6
19.06.2017 03:00:00 11,5 11,2 - - 0,0
19.06.2017 02:00:00 11,5 11,0 - - 0,0
19.06.2017 01:00:00 11,7 11,2 - - 0,0
19.06.2017 00:00:00 11,7 11,0 - - 0,0
18.06.2017 23:00:00 11,8 11,0 - - 0,0
18.06.2017 22:00:00 12,3 10,6 - - 0,0
18.06.2017 21:00:00 12,7 10,9 - - 0,0
18.06.2017 20:00:00 12,9 11,0 - - 0,0
18.06.2017 19:00:00 13,0 11,0 - - 0,0
18.06.2017 18:00:00 13,1 11,1 - - 0,0
18.06.2017 17:00:00 14,7 11,7 - - 0,0
18.06.2017 16:00:00 13,4 11,9 - - 0,6
18.06.2017 15:00:00 13,5 10,1 - - 0,0
18.06.2017 14:00:00 15,2 8,5 - - 0,0
18.06.2017 13:00:00 15,8 9,7 - - 0,0
18.06.2017 12:00:00 15,4 9,4 - - 0,0
18.06.2017 11:00:00 15,0 9,7 - - 0,0
18.06.2017 10:00:00 15,9 11,3 15,9 - 0,0
18.06.2017 09:00:00 14,4 12,6 - - 0,0
18.06.2017 08:00:00 14,7 12,5 - - 0,2
18.06.2017 07:00:00 13,5 13,2 - - 0,2
18.06.2017 06:00:00 13,6 12,9 - - 0,0
18.06.2017 05:00:00 13,4 13,1 - - 0,2
18.06.2017 04:00:00 13,6 13,1 - - 0,0
18.06.2017 03:00:00 13,2 13,1 - - 0,8
18.06.2017 02:00:00 13,3 13,1 - - 1,2
18.06.2017 01:00:00 13,7 13,3 - - 2,0
18.06.2017 00:00:00 13,6 13,3 - - 1,2
17.06.2017 23:00:00 13,6 13,4 - - 1,6
17.06.2017 22:00:00 13,9 13,8 - 10 2,0
17.06.2017 21:00:00 14,0 13,8 - - 4,6
17.06.2017 20:00:00 14,5 14,1 - - 1,8
17.06.2017 19:00:00 14,8 13,9 - - 1,4
17.06.2017 18:00:00 15,0 14,4 - - 1,4
17.06.2017 17:00:00 15,2 14,1 - - 1,2
17.06.2017 16:00:00 15,5 14,6 - - 1,4
17.06.2017 15:00:00 16,0 15,1 - - 1,6
17.06.2017 14:00:00 16,2 15,2 - - 3,4
17.06.2017 13:00:00 16,1 14,2 - - 0,6
17.06.2017 12:00:00 17,1 15,2 - - 0,4
17.06.2017 11:00:00 16,5 14,2 - - 0,2
17.06.2017 10:00:00 16,1 14,4 16,1 - 0,0
17.06.2017 09:00:00 14,9 13,5 - - 0,0
17.06.2017 08:00:00 15,8 13,3 - - 0,2
17.06.2017 07:00:00 14,7 13,4 - - 0,2
17.06.2017 06:00:00 14,0 13,1 - - 0,2
17.06.2017 05:00:00 14,1 12,8 - - 0,2
17.06.2017 04:00:00 14,2 12,7 - - 0,2
17.06.2017 03:00:00 14,2 12,7 - - 0,2
17.06.2017 02:00:00 14,1 12,7 - - 0,4
17.06.2017 01:00:00 13,9 13,3 - - 1,0
17.06.2017 00:00:00 14,1 13,1 - - 1,6
16.06.2017 23:00:00 14,7 12,6 - - 0,0
16.06.2017 22:00:00 14,7 12,6 - - 0,0
16.06.2017 21:00:00 14,6 12,8 - - 0,2

tt = Temperatura
td = dewpoint
tt 5cm = Temperatura 5cm
vv = visibility
rr = precipitazioni

Stazioni seguenti

WeatherPro
AMSI
MeteoEarth